WESTFORD NEEDLES, 2431

Orbit data source: Space-Track

WESTFORD NEEDLES, 2431 is space debris in LEO originally from a launch on Thu, 09 May 1963 UTC launched from the Air Force Western Test Range (AFWTR). Debris objects in space refer to the collection of defunct objects orbiting the Earth. Examples of debris include non-operational satellites, rocket bodies, and fragments generated from explosions, collisions, or faulty payload assembly.

Loading next visibility...
Identifier
2431, 1963-014AC
Orbit
LEO
Country
Flag of USUS
Related business
Manufacturer
Unknown
Mission
Spacecraft
Bus & Motor
Unknown
Mass
Unknown
Launch date (UTC)
1963-05-09 (63 years ago)
Launch vehicle
Unknown
Launch site
Air Force Western Test Range (AFWTR)
Object type
Payload
Rocket body
Debris
Shape & HBR
Unknown shape, 0.3 m
Radar Cross Section
Medium (>0.1 m² and <1 m²)

Expand to show TLE details & history
Last TLE update: 2 months ago

TLE from 2 months ago
0 WESTFORD NEEDLES
1  2431U 63014AC  25355.54668169 -.00000219  00000-0 -94791-1 0  9994
2  2431  87.5256 208.2542 0352739 122.8064 240.7280  8.68514734354281
Epoch: 2025-12-21T13:07Z
TLE epoch observation values (Epoch: 2025-12-21T13:07:13.298Z)
Latitude
-0.00006°
Longitude
-78.90878°
Altitude
3,803.055 km
Speed
6.201 km/s
True Right ascension
13h 53m 01s
True Declination
0° 00' 00"
Sunlit
Object was in daylight at epoch
Visualization orbit readout
Latitude
Unknown
Longitude
Unknown
Altitude
Unknown
Speed
Unknown
Apparent Right ascension
Unknown
Apparent Declination
Unknown
Sunlit
N/A
Visualization observer readout
Local Sidereal Time
14:22:11
Azimuth
Unknown
Elevation
Unknown
Doppler factor
Unknown
Orbital elements
Apogee altitude
3,969.565 km
Perigee altitude
3,264.43 km
Semi-major axis
9,995.135 km
Eccentricity
0.03527
Inclination
87.5256°
RAAN
208.2542°
Arg. of periapsis
122.8064°
True anomaly
237.2786°
Mean anomaly
240.728°
Eccentric anomaly
238.9957°
Mean motion
2.172 °/min
Orbital period
165.75 mins
BSTAR
-0.094791
Loading maneuver chart data...
Computing Atmospheric mass density...

Documentation

Showing up to 5 results
|